Location: Lombard
(41.8800°N, 88.0080°W)
Time: 17:50:10
(UTC-06:00)

Vanguard 3 - Pass Details

Date: 11 December 2023
Orbit: 508 x 3239 km, 33.4° (Epoch: 23 February)

Event Time Altitude Azimuth Distance (km) Brightness Sun altitude
Rises 22:27:32 0° 265° (W) 6,497 12.0 -65.1°
Reaches altitude 10° 22:32:34 10° 262° (W) 5,099 11.3 -65.8°
Enters shadow 22:34:37 15° 260° (W) 4,512 11.0 -66.1°
